Location: Équennes
(49.7375°N, 1.9622°E)
Time: 18:17:44
(UTC+00:00)

Cosmos 2278 - Pass Details

Date: 01 October 2023
Orbit: 838 x 853 km, 71.1° (Epoch: 08 December)

Event Time Altitude Azimuth Distance (km) Brightness Sun altitude
Rises 19:00:14 0° 276° (W) 3,407 8.7 -15.1°
Reaches altitude 10° 19:04:02 10° 301° (WNW) 2,478 7.3 -15.7°
Maximum altitude 19:06:54 14° 332° (NNW) 2,213 6.4 -16.2°
Drops below altitude 10° 19:09:47 10° 2° (N) 2,487 6.3 -16.6°
Sets 19:13:37 0° 28° (NNE) 3,429 6.7 -17.2°
